Location: Burtsch�tz
(51.0528°N, 12.1764°E)
Time: 14:52:58
(UTC+00:00)

ADEOS Rocket - Pass Details

Date: 29 October 2020
Orbit: 859 x 1306 km, 98.7° (Epoch: 28 November)

Event Time Altitude Azimuth Distance (km) Brightness Sun altitude
Rises 16:41:21 0° 13° (NNE) 3,717 5.8 -8.6°
Reaches altitude 10° 16:43:44 10° 12° (NNE) 2,820 5.2 -8.9°
Maximum altitude 16:50:06 73° 289° (WNW) 1,155 3.6 -9.9°
Drops below altitude 10° 16:57:10 10° 207° (SSW) 3,114 6.1 -11.0°
Sets 16:59:55 0° 206° (SSW) 4,129 6.8 -11.4°
